Location: Axtheid
(49.6213°N, 11.8205°E)
Time: 12:07:33
(UTC+00:00)

Cosmos 1758 Rocket - Pass Details

Date: 24 January 2021
Orbit: 602 x 636 km, 82.5° (Epoch: 25 February)

Event Time Altitude Azimuth Distance (km) Brightness Sun altitude
Rises 17:39:39 0° 169° (S) 2,899 7.0 -16.7°
Reaches altitude 10° 17:41:57 10° 162° (SSE) 2,003 6.1 -17.1°
Maximum altitude 17:46:07 41° 92° (E) 917 3.9 -17.7°
Enters shadow 17:47:33 32° 49° (NE) 1,105 4.4 -18.0°
